C/2024 G3 ( ATLAS )

Japanese version
Home page
Updated on January 13, 2025

---------------------------------------------------------------------

* Profile

Discovery Date April 5, 2024
Magnitude 19.2 mag
Discoverer Asteroid Terrestrial-Impact Last Alert System (ATLAS) search program

* Pictures

* Orbital Elements

Epoch 2024 Oct. 17.0 TT = JDT 2460600.5                                         
T 2025 Jan. 13.42771 TT                                 Pike                    
q   0.0935311            (2000.0)            P               Q                  
z  -0.0001271      Peri.  108.12320     -0.04071401     +0.81537095             
 +/-0.0000029      Node   220.33654     +0.14761042     +0.57655103             
e   1.0000119      Incl.  116.84785     +0.98820723     -0.05252736             
From 318 observations 2024 Apr. 5-Dec. 28, mean residual 0".7.                  

* Finding Charts

* Magnitudes Graph

        m1 = 9.0 + 5 log d + 10.0 log r  [    ,-110]  (             - 2024 Sept.25)
        m1 = 7.0 + 5 log d + 10.0 log r  [-110,    ]  (2024 Sept.25 -             )

---------------------------------------------------------------------

The orbital elements are published on M.P.E.C. 2025-A40.
The charts are made with StellaNavigator Ver.11 (AstroArts).
The magnitudes graphs are made with Comet for Windows.

---------------------------------------------------------------------

Copyright(C) Seiichi Yoshida (comet@aerith.net). All rights reserved.